CW9274 Weather Reports


Display with metric or nautical units.
time (UTC)temp
F
wind
direction
speed
MPH
gust
MPH
rain 1hr
in
rain 24hr
in
rain mn
in
humidity
%
barometer
mb
20260507014903 65 352 7.0 12.0 0.00 0.00 0.00 34 1005.3
20260507014404 65 350 3.0 6.0 0.00 0.00 0.00 33 1005.2
20260507012904 65 14 7.0 12.0 0.00 0.00 0.00 32 1005.0
20260507011904 66 317 7.0 12.0 0.00 0.00 0.00 31 1005.0
20260507010404 66 300 3.0 8.0 0.00 0.00 0.00 32 1005.0
20260507005904 66 300 3.0 8.0 0.00 0.00 0.00 32 1005.1
20260507005403 66 328 2.0 12.0 0.00 0.00 0.00 30 1005.1
20260507004904 65 24 7.0 12.0 0.00 0.00 0.00 31 1005.0
20260507004404 66 37 6.0 9.0 0.00 0.00 0.00 31 1005.0
20260507003903 66 14 4.0 7.0 0.00 0.00 0.00 31 1005.2
20260507003404 66 44 2.0 3.0 0.00 0.00 0.00 32 1005.1
20260507002904 67 47 2.0 3.0 0.00 0.00 0.00 30 1004.9
20260507002404 67 34 3.0 6.0 0.00 0.00 0.00 31 1004.8
20260507001404 67 55 2.0 6.0 0.00 0.00 0.00 30 1004.6
20260507000904 67 46 1.0 5.0 0.00 0.00 0.00 30 1004.6
20260507000405 67 50 3.0 8.0 0.00 0.00 0.00 32 1004.6
20260506235403 67 46 3.0 6.0 0.00 0.00 0.00 30 1004.7
20260506234904 67 14 5.0 8.0 0.00 0.00 0.00 30 1004.7
20260506234404 67 7 4.0 9.0 0.00 0.00 0.00 30 1004.7
20260506233904 67 50 4.0 6.0 0.00 0.00 0.00 30 1004.6
20260506233404 67 44 5.0 8.0 0.00 0.00 0.00 30 1004.6
20260506232904 67 57 1.0 10.0 0.00 0.00 0.00 31 1004.6
20260506232403 67 71 5.0 8.0 0.00 0.00 0.00 29 1004.6
20260506231904 67 65 3.0 7.0 0.00 0.00 0.00 30 1004.6
20260506231404 67 65 4.0 9.0 0.00 0.00 0.00 30 1004.7
20260506230904 67 52 3.0 10.0 0.00 0.00 0.00 31 1004.8
20260506230404 67 41 7.0 12.0 0.00 0.00 0.00 29 1004.9
20260506225904 67 37 6.0 12.0 0.00 0.00 0.00 29 1005.0
20260506225404 68 38 6.0 12.0 0.00 0.00 0.00 29 1004.9
20260506224904 68 49 6.0 12.0 0.00 0.00 0.00 29 1004.9
20260506224404 69 54 5.0 13.0 0.00 0.00 0.00 29 1005.0
20260506223904 70 47 6.0 13.0 0.00 0.00 0.00 27 1005.0
20260506223404 71 51 5.0 13.0 0.00 0.00 0.00 28 1004.9
20260506222904 71 68 4.0 9.0 0.00 0.00 0.00 29 1004.9
20260506222404 70 98 4.0 12.0 0.00 0.00 0.00 27 1005.0
20260506221904 69 51 5.0 12.0 0.00 0.00 0.00 30 1005.1
20260506221404 69 99 3.0 12.0 0.00 0.00 0.00 29 1005.2
20260506220901 69 44 10.0 18.0 0.00 0.00 0.00 28 1005.4
20260506220400 70 20 11.0 17.0 0.00 0.00 0.00 26 1005.3
20260506215900 72 306 10.0 22.0 0.00 0.00 0.00 24 1004.8
20260506215400 72 312 3.0 12.0 0.00 0.00 0.00 25 1005.5
20260506214900 72 257 5.0 18.0 0.00 0.00 0.00 26 1005.5
20260506214400 72 51 4.0 9.0 0.00 0.00 0.00 29 1005.6
20260506213900 72 144 5.0 9.0 0.00 0.00 0.00 27 1005.6
20260506213400 72 162 3.0 18.0 0.00 0.00 0.00 24 1005.7
20260506211900 71 278 5.0 18.0 0.00 0.00 0.00 26 1005.9
20260506211400 71 256 7.0 12.0 0.00 0.00 0.00 26 1006.1
20260506210901 70 349 3.0 8.0 0.00 0.00 0.00 30 1006.2
20260506210401 69 349 5.0 9.0 0.00 0.00 0.00 27 1006.3
20260506205900 69 336 4.0 6.0 0.00 0.00 0.00 30 1006.4
20260506205400 68 228 2.0 3.0 0.00 0.00 0.00 28 1006.4
20260506204400 68 68 5.0 8.0 0.00 0.00 0.00 29 1006.3
20260506203901 68 68 3.0 10.0 0.00 0.00 0.00 28 1006.5
20260506203400 69 125 3.0 12.0 0.00 0.00 0.00 29 1006.6
20260506202400 68 122 3.0 7.0 0.00 0.00 0.00 29 1006.8
20260506201400 68 28 2.0 5.0 0.00 0.00 0.00 27 1007.0
20260506200901 69 93 2.0 6.0 0.00 0.00 0.00 29 1007.1
20260506200402 69 130 4.0 8.0 0.00 0.00 0.00 28 1007.2
20260506195900 69 75 2.0 8.0 0.00 0.00 0.00 30 1007.3
20260506194900 68 90 5.0 9.0 0.00 0.00 0.00 29 1007.3
20260506193900 68 76 6.0 12.0 0.00 0.00 0.00 29 1007.4
20260506192900 68 51 4.0 7.0 0.00 0.00 0.00 31 1007.6
20260506191900 68 30 4.0 8.0 0.00 0.00 0.00 30 1007.7
20260506191400 68 55 3.0 7.0 0.00 0.00 0.00 29 1008.0
20260506190901 68 42 3.0 5.0 0.00 0.00 0.00 31 1008.0
20260506190401 67 324 3.0 6.0 0.00 0.00 0.00 31 1008.1
20260506185900 67 291 2.0 5.0 0.00 0.00 0.00 30 1008.4
20260506185400 67 174 4.0 12.0 0.00 0.00 0.00 29 1008.4
20260506184901 67 84 4.0 10.0 0.00 0.00 0.00 29 1008.4
20260506184401 66 189 3.0 6.0 0.00 0.00 0.00 32 1008.5
20260506183901 66 186 3.0 7.0 0.00 0.00 0.00 31 1008.6
20260506182400 65 122 5.0 9.0 0.00 0.00 0.00 31 1008.7
20260506181901 65 89 3.0 10.0 0.00 0.00 0.00 32 1008.7
20260506181401 65 145 4.0 13.0 0.00 0.00 0.00 31 1008.8
20260506180901 64 254 3.0 5.0 0.00 0.00 0.00 30 1008.9
20260506175900 64 97 3.0 13.0 0.00 0.00 0.00 31 1009.1
20260506175400 64 149 6.0 10.0 0.00 0.00 0.00 31 1009.2
20260506174901 64 120 4.0 8.0 0.00 0.00 0.00 31 1009.3
20260506174401 64 167 3.0 12.0 0.00 0.00 0.00 31 1009.5
20260506173901 63 147 1.0 3.0 0.00 0.00 0.00 32 1009.5
20260506172901 62 161 3.0 6.0 0.00 0.00 0.00 36 1009.8
20260506172400 61 105 2.0 5.0 0.00 0.00 0.00 36 1009.8
20260506171900 61 176 3.0 6.0 0.00 0.00 0.00 36 1010.0
20260506171400 61 113 3.0 8.0 0.00 0.00 0.00 36 1010.0
20260506170901 60 132 4.0 7.0 0.00 0.00 0.00 36 1010.2
20260506170401 60 180 3.0 6.0 0.00 0.00 0.00 38 1010.4
20260506165900 59 130 3.0 5.0 0.00 0.00 0.00 38 1010.5
20260506165401 58 131 2.0 6.0 0.00 0.00 0.00 39 1010.5
20260506164900 58 152 3.0 5.0 0.00 0.00 0.00 38 1010.6
20260506164400 57 117 4.0 7.0 0.00 0.00 0.00 40 1010.7
20260506163901 57 144 3.0 6.0 0.00 0.00 0.00 40 1010.8
20260506163401 56 0 3.0 6.0 0.00 0.00 0.00 40 1010.9
20260506162901 56 0 2.0 5.0 0.00 0.00 0.00 40 1011.0
20260506162401 55 52 3.0 6.0 0.00 0.00 0.00 42 1011.1
20260506161901 55 0 4.0 8.0 0.00 0.00 0.00 39 1011.2
20260506161401 55 147 3.0 5.0 0.00 0.00 0.00 41 1011.2
20260506160901 54 177 3.0 5.0 0.00 0.00 0.00 43 1011.3
20260506160401 53 167 3.0 7.0 0.00 0.00 0.00 41 1011.4
20260506155401 52 18 2.0 5.0 0.00 0.00 0.00 46 1011.6
20260506154901 51 0 4.0 6.0 0.00 0.00 0.00 46 1011.7
20260506154401 50 357 4.0 6.0 0.00 0.00 0.00 46 1011.7
20260506153902 49 357 2.0 3.0 0.00 0.00 0.00 49 1011.8
20260506153401 48 347 1.0 3.0 0.00 0.00 0.00 51 1011.8
20260506152901 47 0 2.0 5.0 0.00 0.00 0.00 50 1011.9
20260506152402 47 0 2.0 3.0 0.00 0.00 0.00 51 1012.0
20260506151902 46 338 2.0 3.0 0.00 0.00 0.00 52 1012.0
20260506151401 45 0 1.0 3.0 0.00 0.00 0.00 53 1012.1
20260506150901 44 0 1.0 3.0 0.00 0.00 0.00 54 1012.2
20260506150402 44 0 2.0 5.0 0.00 0.00 0.00 55 1012.3
20260506145402 43 0 2.0 3.0 0.00 0.00 0.00 55 1012.5
20260506144901 42 0 1.0 3.0 0.00 0.00 0.00 57 1012.5
20260506144401 42 0 2.0 3.0 0.00 0.00 0.00 57 1012.5
20260506143901 42 0 2.0 3.0 0.00 0.00 0.00 57 1012.6
20260506142901 41 0 2.0 3.0 0.00 0.00 0.00 59 1012.7
20260506142401 40 0 1.0 3.0 0.00 0.00 0.00 61 1012.7
20260506141901 39 0 2.0 3.0 0.00 0.00 0.00 62 1012.8
20260506141401 39 0 2.0 3.0 0.00 0.00 0.00 61 1012.8
20260506140402 37 0 3.0 3.0 0.00 0.00 0.00 63 1013.0
20260506135901 37 0 3.0 3.0 0.00 0.00 0.00 64 1013.0
20260506135401 36 293 1.0 3.0 0.00 0.00 0.00 67 1013.0
20260506134902 35 294 1.0 3.0 0.00 0.00 0.00 68 1013.0
20260506134401 34 263 2.0 3.0 0.00 0.00 0.00 68 1013.0
20260506133901 33 263 1.0 2.0 0.00 0.00 0.00 69 1013.0
20260506133401 33 0 2.0 3.0 0.00 0.00 0.00 70 1013.1
20260506131401 31 0 2.0 3.0 0.00 0.00 0.00 68 1013.2
20260506125901 30 206 1.0 2.0 0.00 0.00 0.00 70 1013.2
20260506124901 30 206 0.0 2.0 0.00 0.00 0.00 69 1013.1
20260506124402 30 206 1.0 2.0 0.00 0.00 0.00 68 1013.2
20260506123901 31 206 1.0 2.0 0.00 0.00 0.00 68 1013.3
20260506123401 31 206 1.0 2.0 0.00 0.00 0.00 68 1013.2
20260506122902 31 206 1.0 2.0 0.00 0.00 0.00 68 1013.2
20260506122401 31 206 1.0 2.0 0.00 0.00 0.00 67 1013.2
20260506121902 31 206 1.0 2.0 0.00 0.00 0.00 66 1013.3
20260506121402 31 206 1.0 3.0 0.00 0.00 0.00 66 1013.2
20260506120901 31 206 1.0 2.0 0.00 0.00 0.00 66 1013.3
20260506120402 31 206 1.0 2.0 0.00 0.00 0.00 65 1013.3
20260506115903 31 206 1.0 2.0 0.00 0.00 0.00 67 1013.4
20260506115401 31 206 1.0 3.0 0.00 0.00 0.00 68 1013.5
20260506114902 31 206 0.0 0.0 0.00 0.00 0.00 66 1013.6
20260506114401 31 206 0.0 0.0 0.00 0.00 0.00 66 1013.6
20260506113902 31 206 0.0 0.0 0.00 0.00 0.00 65 1013.7
20260506113402 31 206 0.0 0.0 0.00 0.00 0.00 65 1013.8
20260506112902 31 206 0.0 1.0 0.00 0.00 0.00 64 1013.9
20260506112402 31 206 1.0 2.0 0.00 0.00 0.00 64 1013.9
20260506111902 31 206 1.0 2.0 0.00 0.00 0.00 63 1014.0
20260506111402 31 206 1.0 2.0 0.00 0.00 0.00 63 1014.0
20260506110902 31 206 0.0 1.0 0.00 0.00 0.00 63 1014.1
20260506110401 31 206 1.0 3.0 0.00 0.00 0.00 63 1014.2
20260506105402 31 205 3.0 3.0 0.00 0.00 0.00 63 1014.1
20260506104902 31 204 2.0 3.0 0.00 0.00 0.00 63 1014.2
20260506104402 30 201 3.0 3.0 0.00 0.00 0.00 63 1014.3
20260506103902 30 184 2.0 3.0 0.00 0.00 0.00 62 1014.5
20260506103402 30 157 1.0 3.0 0.00 0.00 0.00 62 1014.5
20260506102902 30 157 1.0 2.0 0.00 0.00 0.00 62 1014.5
20260506101902 31 157 0.0 2.0 0.00 0.00 0.00 61 1014.7
20260506101402 31 157 1.0 2.0 0.00 0.00 0.00 61 1014.8
20260506100902 31 157 0.0 1.0 0.00 0.00 0.00 61 1014.8
20260506095902 31 132 1.0 3.0 0.00 0.00 0.00 60 1014.9
20260506095402 31 132 0.0 2.0 0.00 0.00 0.00 60 1015.1
20260506094902 31 132 1.0 3.0 0.00 0.00 0.00 60 1015.1
20260506093902 32 134 1.0 3.0 0.00 0.00 0.00 59 1015.3
20260506093402 32 112 2.0 3.0 0.00 0.00 0.00 59 1015.4
20260506092901 32 158 2.0 5.0 0.00 0.00 0.00 59 1015.5
20260506092402 32 140 1.0 3.0 0.00 0.00 0.00 59 1015.6
20260506091902 32 139 1.0 3.0 0.00 0.00 0.00 58 1015.6
20260506091402 32 150 2.0 5.0 0.00 0.00 0.00 58 1015.6
20260506090902 32 165 2.0 5.0 0.00 0.00 0.00 58 1015.7
20260506090402 33 140 2.0 5.0 0.00 0.00 0.00 58 1015.7
20260506085902 33 155 2.0 5.0 0.00 0.00 0.00 58 1015.7
20260506085403 33 137 2.0 5.0 0.00 0.00 0.00 57 1015.8
20260506084902 33 136 2.0 6.0 0.00 0.00 0.00 57 1015.9
20260506084402 33 146 2.0 7.0 0.00 0.00 0.00 57 1016.0
20260506083902 33 163 4.0 9.0 0.00 0.00 0.00 57 1016.0
20260506083402 33 154 5.0 8.0 0.00 0.00 0.00 57 1016.1
20260506082902 33 146 3.0 13.0 0.00 0.00 0.00 57 1016.2
20260506082403 33 149 3.0 7.0 0.00 0.00 0.00 57 1016.1
20260506081902 33 121 3.0 7.0 0.00 0.00 0.00 57 1016.3
20260506080402 34 125 2.0 12.0 0.00 0.00 0.00 55 1016.3
20260506073402 33 121 3.0 7.0 0.00 0.00 0.00 56 1016.6
20260506072903 33 149 5.0 14.0 0.00 0.00 0.00 56 1016.5
20260506072403 33 134 3.0 5.0 0.00 0.00 0.00 56 1016.7
20260506071902 33 121 2.0 6.0 0.00 0.00 0.00 56 1016.6
20260506071403 33 116 3.0 6.0 0.00 0.00 0.00 56 1016.8
20260506070402 34 154 2.0 5.0 0.00 0.00 0.00 55 1016.9
20260506062403 34 135 2.0 6.0 0.00 0.00 0.00 54 1017.5
20260506061902 34 123 3.0 7.0 0.00 0.00 0.00 54 1017.5
20260506061403 34 116 2.0 3.0 0.00 0.00 0.00 54 1017.6
20260506060903 34 119 2.0 7.0 0.00 0.00 0.00 54 1017.7
20260506060403 34 136 2.0 3.0 0.00 0.00 0.00 53 1017.7
20260506050903 36 118 2.0 3.0 0.00 0.00 0.00 50 1018.2
20260506050404 36 120 1.0 3.0 0.00 0.00 0.00 50 1018.2
20260506044902 37 124 2.0 5.0 0.00 0.00 0.00 49 1018.3
20260506044403 37 129 1.0 3.0 0.00 0.00 0.00 49 1018.2
20260506043902 38 126 2.0 3.0 0.00 0.00 0.00 49 1018.3
20260506043403 38 118 2.0 6.0 0.00 0.00 0.00 49 1018.3
20260506042904 38 124 2.0 3.0 0.00 0.00 0.00 49 1018.2
20260506042404 38 118 2.0 3.0 0.00 0.00 0.00 48 1018.3
20260506041904 39 132 1.0 3.0 0.00 0.00 0.00 48 1018.3
20260506041404 39 119 2.0 5.0 0.00 0.00 0.00 47 1018.3
20260506035903 40 126 2.0 5.0 0.00 0.00 0.00 46 1018.3
20260506035403 39 128 3.0 7.0 0.00 0.00 0.00 46 1018.4
20260506034903 39 125 2.0 3.0 0.00 0.00 0.00 46 1018.5
20260506034403 39 117 2.0 3.0 0.00 0.00 0.00 46 1018.5
20260506033903 40 65 1.0 2.0 0.00 0.00 0.00 45 1018.5
20260506033403 40 0 0.0 3.0 0.00 0.00 0.00 44 1018.4
20260506032903 40 0 2.0 3.0 0.00 0.00 0.00 44 1018.3
20260506032403 41 0 2.0 3.0 0.00 0.00 0.00 43 1018.3
20260506031903 41 0 1.0 3.0 0.00 0.00 0.00 43 1018.3
20260506031404 41 0 1.0 3.0 0.00 0.00 0.00 42 1018.2
20260506030903 41 0 2.0 3.0 0.00 0.00 0.00 42 1018.1
20260506030403 42 0 1.0 3.0 0.00 0.00 0.00 41 1018.2
20260506025903 42 0 1.0 3.0 0.00 0.00 0.00 40 1018.2
20260506024403 43 0 2.0 3.0 0.00 0.00 0.00 40 1018.1
20260506023904 44 0 2.0 3.0 0.00 0.00 0.00 39 1018.0
20260506023403 44 0 2.0 3.0 0.00 0.00 0.00 39 1018.0
20260506022902 45 0 2.0 5.0 0.00 0.00 0.00 38 1018.1
20260506021903 45 0 1.0 3.0 0.00 0.00 0.00 39 1018.2
20260506021404 45 0 1.0 3.0 0.00 0.00 0.00 39 1018.2
20260506020903 45 0 2.0 5.0 0.00 0.00 0.00 39 1018.1
20260506020404 45 0 1.0 3.0 0.00 0.00 0.00 40 1018.1
20260506015903 45 0 1.0 3.0 0.00 0.00 0.00 39 1018.1
20260506015403 45 13 2.0 3.0 0.00 0.00 0.00 38 1018.0